Tracking 32139 objects as of 14-Nov-2025
HD Live streaming from Space Station
objects crossing your sky now

JUPITER 3 (ECHOSTAR 24)

Track JUPITER 3 (ECHOSTAR 24) now!
JUPITER 3 (ECHOSTAR 24) is classified as:


NORAD ID: 57479
Int'l Code: 2023-108A
Perigee: 35,788.9 km
Apogee: 35,798.6 km
Inclination: 0.0 °
Period: 1,436.1 minutes
Semi major axis: 42164 km
RCS: Unknown
Launch date: July 29, 2023
Source: United States (US)
Launch site: AIR FORCE EASTERN TEST RANGE (AFETR)
Your satellite tracking list
Your tracking list is empty




NASA's NSSDC Master Catalog

Two Line Element Set (TLE):
1 57479U 23108A   25317.11857184 -.00000152  00000-0  00000-0 0  9998
2 57479   0.0144 303.5857 0001149 287.8490 128.5741  1.00271616  8489
Source of the keplerian elements: AFSPC